CW2857 Weather Reports


Display with metric or nautical units.
time (UTC)temp
F
wind
direction
speed
MPH
gust
MPH
rain 1hr
in
rain 24hr
in
rain mn
in
humidity
%
barometer
mb
20260507021557 77 343 4.0 11.0 0.00 0.00 0.00 13 1011.3
20260507021055 78 314 6.0 11.0 0.00 0.00 0.00 13 1011.3
20260507020554 78 279 5.0 11.0 0.00 0.00 0.00 13 1011.3
20260507020055 78 315 5.0 11.0 0.00 0.00 0.00 13 1011.3
20260507015554 79 350 5.0 11.0 0.00 0.00 0.00 12 1011.3
20260507015055 79 355 5.0 11.0 0.00 0.00 0.00 12 1011.3
20260507014606 79 321 5.0 11.0 0.00 0.00 0.00 12 1011.4
20260507014053 80 331 4.0 12.0 0.00 0.00 0.00 12 1011.3
20260507013552 80 9 6.0 12.0 0.00 0.00 0.00 12 1011.4
20260507013111 80 343 4.0 12.0 0.00 0.00 0.00 12 1011.3
20260507012552 80 342 8.0 12.0 0.00 0.00 0.00 11 1011.3
20260507012052 81 35 6.0 11.0 0.00 0.00 0.00 11 1011.3
20260507011552 81 351 5.0 11.0 0.00 0.00 0.00 11 1011.3
20260507011051 82 5 3.0 9.0 0.00 0.00 0.00 10 1011.3
20260507010552 82 346 4.0 10.0 0.00 0.00 0.00 9 1011.4
20260507010051 82 360 4.0 10.0 0.00 0.00 0.00 9 1011.3
20260507005550 82 327 2.0 8.0 0.00 0.00 0.00 9 1011.3
20260507005051 82 350 3.0 10.0 0.00 0.00 0.00 9 1011.3
20260507004550 82 22 3.0 10.0 0.00 0.00 0.00 10 1011.3
20260507004050 82 355 5.0 12.0 0.00 0.00 0.00 9 1011.3
20260507003549 82 355 1.0 6.0 0.00 0.00 0.00 9 1011.3
20260507003049 82 346 3.0 9.0 0.00 0.00 0.00 10 1011.4
20260507002550 82 333 4.0 10.0 0.00 0.00 0.00 9 1011.4
20260507002049 81 327 3.0 9.0 0.00 0.00 0.00 10 1011.4
20260507001608 81 263 4.0 11.0 0.00 0.00 0.00 10 1011.4
20260507001052 81 343 4.0 13.0 0.00 0.00 0.00 10 1011.4
20260507000549 81 297 4.0 13.0 0.00 0.00 0.00 11 1011.4
20260507000049 82 10 5.0 10.0 0.00 0.00 0.00 10 1011.4
20260506235549 83 340 4.0 10.0 0.00 0.00 0.00 10 1011.4
20260506235048 82 288 3.0 9.0 0.00 0.00 0.00 10 1011.4
20260506234548 83 249 3.0 9.0 0.00 0.00 0.00 10 1011.4
20260506234050 83 344 3.0 10.0 0.00 0.00 0.00 10 1011.5
20260506233547 82 31 2.0 10.0 0.00 0.00 0.00 11 1011.5
20260506233048 81 336 3.0 12.0 0.00 0.00 0.00 11 1011.4
20260506232546 82 276 4.0 15.0 0.00 0.00 0.00 11 1011.6
20260506232046 82 304 5.0 15.0 0.00 0.00 0.00 10 1011.7
20260506231549 85 20 1.0 9.0 0.00 0.00 0.00 10 1011.7
20260506231046 84 289 3.0 9.0 0.00 0.00 0.00 10 1011.8
20260506230546 84 338 2.0 8.0 0.00 0.00 0.00 10 1011.8
20260506230045 83 355 4.0 9.0 0.00 0.00 0.00 10 1011.9
20260506225546 82 9 1.0 9.0 0.00 0.00 0.00 11 1012.0
20260506225045 82 9 4.0 12.0 0.00 0.00 0.00 11 1012.1
20260506224544 81 355 6.0 12.0 0.00 0.00 0.00 11 1012.1
20260506224043 83 283 6.0 11.0 0.00 0.00 0.00 10 1012.1
20260506223547 83 46 3.0 10.0 0.00 0.00 0.00 10 1012.2
20260506223101 83 37 4.0 11.0 0.00 0.00 0.00 11 1012.3
20260506222544 82 300 4.0 11.0 0.00 0.00 0.00 12 1012.4
20260506222042 83 333 6.0 11.0 0.00 0.00 0.00 13 1012.6
20260506221543 83 349 4.0 13.0 0.00 0.00 0.00 12 1012.5
20260506221042 83 349 7.0 13.0 0.00 0.00 0.00 11 1012.6
20260506220544 83 308 1.0 12.0 0.00 0.00 0.00 11 1012.8
20260506220043 83 14 6.0 15.0 0.00 0.00 0.00 11 1012.9
20260506215543 83 10 6.0 13.0 0.00 0.00 0.00 11 1012.9
20260506215042 83 286 2.0 13.0 0.00 0.00 0.00 12 1012.9
20260506214542 84 5 6.0 13.0 0.00 0.00 0.00 12 1013.0
20260506214042 85 21 4.0 10.0 0.00 0.00 0.00 11 1013.1
20260506213543 84 341 3.0 11.0 0.00 0.00 0.00 11 1013.1
20260506213042 84 355 3.0 12.0 0.00 0.00 0.00 11 1013.2
20260506212541 83 360 6.0 12.0 0.00 0.00 0.00 12 1013.3
20260506212042 83 5 1.0 9.0 0.00 0.00 0.00 12 1013.3
20260506211541 82 337 2.0 12.0 0.00 0.00 0.00 12 1013.4
20260506211039 81 360 6.0 12.0 0.00 0.00 0.00 12 1013.4
20260506210539 81 18 6.0 13.0 0.00 0.00 0.00 13 1013.5
20260506210041 83 355 6.0 13.0 0.00 0.00 0.00 11 1013.6
20260506205539 83 76 3.0 10.0 0.00 0.00 0.00 11 1013.5
20260506205037 83 343 2.0 13.0 0.00 0.00 0.00 10 1013.6
20260506204536 82 20 8.0 13.0 0.00 0.00 0.00 10 1013.7
20260506204036 81 330 2.0 17.0 0.00 0.00 0.00 10 1013.7
20260506203535 81 311 6.0 17.0 0.00 0.00 0.00 12 1013.7
20260506203043 81 62 7.0 13.0 0.00 0.00 0.00 11 1013.7
20260506202535 82 275 5.0 11.0 0.00 0.00 0.00 10 1013.9
20260506202035 81 5 4.0 10.0 0.00 0.00 0.00 10 1013.9
20260506201534 81 328 3.0 12.0 0.00 0.00 0.00 11 1013.9
20260506201036 79 346 3.0 12.0 0.00 0.00 0.00 11 1013.9
20260506200534 79 355 4.0 14.0 0.00 0.00 0.00 12 1014.0
20260506200037 81 298 7.0 14.0 0.00 0.00 0.00 11 1014.0
20260506195532 82 38 5.0 10.0 0.00 0.00 0.00 12 1014.0
20260506195031 81 30 5.0 10.0 0.00 0.00 0.00 13 1014.1
20260506194531 81 61 2.0 10.0 0.00 0.00 0.00 13 1014.1
20260506194029 81 35 4.0 10.0 0.00 0.00 0.00 14 1014.1
20260506193529 80 16 1.0 8.0 0.00 0.00 0.00 13 1014.3
20260506193027 80 15 3.0 8.0 0.00 0.00 0.00 13 1014.4
20260506192527 79 53 2.0 9.0 0.00 0.00 0.00 16 1014.4
20260506192028 77 347 4.0 9.0 0.00 0.00 0.00 17 1014.5
20260506191529 77 252 1.0 9.0 0.00 0.00 0.00 18 1014.6
20260506191026 79 259 4.0 10.0 0.00 0.00 0.00 16 1014.6
20260506190528 79 343 3.0 10.0 0.00 0.00 0.00 15 1014.7
20260506190024 78 355 2.0 6.0 0.00 0.00 0.00 17 1014.7
20260506185523 76 5 2.0 7.0 0.00 0.00 0.00 19 1014.8
20260506185024 74 335 2.0 9.0 0.00 0.00 0.00 19 1014.8
20260506184523 75 283 3.0 11.0 0.00 0.00 0.00 20 1014.9
20260506184023 78 289 6.0 10.0 0.00 0.00 0.00 19 1015.0
20260506183523 78 40 4.0 9.0 0.00 0.00 0.00 19 1015.0
20260506183024 78 5 3.0 11.0 0.00 0.00 0.00 19 1015.0
20260506182520 77 86 5.0 11.0 0.00 0.00 0.00 20 1015.1
20260506182021 77 13 5.0 11.0 0.00 0.00 0.00 20 1015.1
20260506181524 77 305 3.0 8.0 0.00 0.00 0.00 21 1015.1
20260506181017 76 38 3.0 8.0 0.00 0.00 0.00 22 1015.2
20260506180523 76 325 2.0 10.0 0.00 0.00 0.00 22 1015.1
20260506180025 75 350 5.0 10.0 0.00 0.00 0.00 23 1015.2
20260506175515 74 349 4.0 12.0 0.00 0.00 0.00 23 1015.2
20260506175014 74 335 6.0 12.0 0.00 0.00 0.00 23 1015.1
20260506174514 74 327 5.0 11.0 0.00 0.00 0.00 23 1015.1
20260506174013 74 26 5.0 12.0 0.00 0.00 0.00 24 1015.2
20260506173512 73 331 3.0 12.0 0.00 0.00 0.00 24 1015.1
20260506173011 73 288 6.0 11.0 0.00 0.00 0.00 24 1015.1
20260506172510 73 355 5.0 12.0 0.00 0.00 0.00 24 1015.1
20260506172012 72 19 6.0 12.0 0.00 0.00 0.00 24 1015.1
20260506171508 71 326 6.0 11.0 0.00 0.00 0.00 25 1015.1
20260506171008 71 355 5.0 11.0 0.00 0.00 0.00 25 1015.1
20260506170506 70 288 7.0 11.0 0.00 0.00 0.00 25 1015.1
20260506170007 70 331 6.0 12.0 0.00 0.00 0.00 25 1015.2
20260506165504 70 355 8.0 13.0 0.00 0.00 0.00 26 1015.3
20260506165003 69 5 7.0 13.0 0.00 0.00 0.00 26 1015.2
20260506164504 68 355 6.0 12.0 0.00 0.00 0.00 26 1015.2
20260506164004 69 338 7.0 15.0 0.00 0.00 0.00 26 1015.2
20260506163503 69 350 5.0 12.0 0.00 0.00 0.00 26 1015.2
20260506163005 69 5 4.0 15.0 0.00 0.00 0.00 26 1015.2
20260506162602 68 341 5.0 15.0 0.00 0.00 0.00 27 1015.2
20260506162100 68 340 6.0 15.0 0.00 0.00 0.00 27 1015.1
20260506161600 67 347 8.0 15.0 0.00 0.00 0.00 27 1015.1
20260506161057 67 355 9.0 19.0 0.00 0.00 0.00 27 1015.1
20260506160557 67 339 9.0 19.0 0.00 0.00 0.00 27 1015.1
20260506160107 67 344 8.0 16.0 0.00 0.00 0.00 28 1015.1
20260506155555 67 350 9.0 15.0 0.00 0.00 0.00 27 1015.0
20260506155054 67 82 9.0 15.0 0.00 0.00 0.00 28 1015.1
20260506154553 67 315 7.0 18.0 0.00 0.00 0.00 29 1015.1
20260506154052 66 5 9.0 18.0 0.00 0.00 0.00 29 1015.1
20260506153552 66 350 6.0 14.0 0.00 0.00 0.00 31 1015.0
20260506153049 66 348 5.0 12.0 0.00 0.00 0.00 32 1015.0
20260506152548 65 329 7.0 12.0 0.00 0.00 0.00 33 1014.9
20260506152048 65 302 5.0 12.0 0.00 0.00 0.00 34 1015.0
20260506151546 64 340 5.0 11.0 0.00 0.00 0.00 35 1015.0
20260506151044 63 333 6.0 11.0 0.00 0.00 0.00 36 1014.9
20260506150543 63 288 5.0 11.0 0.00 0.00 0.00 37 1014.9
20260506150042 62 355 4.0 9.0 0.00 0.00 0.00 39 1014.8
20260506145540 61 281 2.0 9.0 0.00 0.00 0.00 40 1014.9
20260506145039 61 269 3.0 11.0 0.00 0.00 0.00 41 1014.8
20260506144538 60 273 6.0 11.0 0.00 0.00 0.00 41 1014.7
20260506144039 60 240 6.0 11.0 0.00 0.00 0.00 43 1014.7
20260506143538 60 272 6.0 12.0 0.00 0.00 0.00 43 1014.6
20260506143037 60 281 8.0 12.0 0.00 0.00 0.00 45 1014.6
20260506142536 60 319 5.0 12.0 0.00 0.00 0.00 48 1014.5
20260506142036 59 307 4.0 14.0 0.00 0.00 0.00 49 1014.4
20260506141535 59 267 8.0 14.0 0.00 0.00 0.00 50 1014.3
20260506141036 59 288 10.0 15.0 0.00 0.00 0.00 50 1014.2
20260506140534 59 261 10.0 15.0 0.00 0.00 0.00 50 1014.1
20260506140037 59 261 9.0 13.0 0.00 0.00 0.00 50 1014.1
20260506135535 58 288 8.0 13.0 0.00 0.00 0.00 49 1014.1
20260506135032 58 248 8.0 13.0 0.00 0.00 0.00 48 1014.1
20260506134605 58 279 7.0 13.0 0.00 0.00 0.00 47 1014.0
20260506134030 58 280 7.0 15.0 0.00 0.00 0.00 46 1014.0
20260506133531 58 278 9.0 12.0 0.00 0.00 0.00 48 1013.8
20260506133032 57 275 5.0 12.0 0.00 0.00 0.00 51 1013.8
20260506132529 57 266 9.0 12.0 0.00 0.00 0.00 51 1013.7
20260506132029 57 254 8.0 10.0 0.00 0.00 0.00 51 1013.6
20260506131529 57 239 5.0 12.0 0.00 0.00 0.00 51 1013.5
20260506131026 58 265 4.0 12.0 0.00 0.00 0.00 49 1013.4
20260506130532 57 268 6.0 13.0 0.00 0.00 0.00 49 1013.3
20260506130027 57 255 4.0 10.0 0.00 0.00 0.00 52 1013.2
20260506125525 56 222 5.0 8.0 0.00 0.01 0.00 53 1013.2
20260506125025 56 234 3.0 8.0 0.00 0.01 0.00 53 1013.1
20260506124523 56 273 2.0 6.0 0.00 0.01 0.00 53 1013.1
20260506124022 56 276 3.0 7.0 0.00 0.01 0.00 52 1013.0
20260506123522 57 259 4.0 8.0 0.00 0.01 0.00 51 1013.0
20260506123022 58 240 4.0 11.0 0.00 0.01 0.00 50 1013.0
20260506122523 58 244 8.0 11.0 0.00 0.01 0.00 49 1013.0
20260506122020 58 273 8.0 13.0 0.00 0.01 0.00 48 1012.8
20260506121520 58 250 9.0 13.0 0.00 0.01 0.00 50 1012.9
20260506121019 57 271 9.0 13.0 0.00 0.01 0.00 51 1012.7
20260506120519 57 272 6.0 11.0 0.00 0.01 0.00 52 1012.6
20260506120018 58 253 6.0 11.0 0.00 0.01 0.00 51 1012.5
20260506115517 57 269 5.0 12.0 0.00 0.01 0.00 51 1012.5
20260506115019 58 245 5.0 12.0 0.00 0.01 0.00 51 1012.4
20260506114524 58 246 7.0 11.0 0.00 0.01 0.00 51 1012.3
20260506114016 58 234 6.0 12.0 0.00 0.01 0.00 50 1012.2
20260506113516 58 238 8.0 12.0 0.00 0.01 0.00 50 1012.2
20260506113018 58 261 6.0 11.0 0.00 0.01 0.00 50 1012.2
20260506112515 58 240 6.0 13.0 0.00 0.01 0.00 51 1012.1
20260506112015 58 243 7.0 13.0 0.00 0.01 0.00 51 1012.0
20260506111513 57 285 5.0 11.0 0.00 0.01 0.00 52 1011.9
20260506111013 56 254 6.0 11.0 0.00 0.01 0.00 55 1011.9
20260506110513 54 239 5.0 9.0 0.00 0.01 0.00 61 1011.9
20260506110016 52 306 3.0 9.0 0.00 0.01 0.00 65 1011.8
20260506105510 51 298 0.0 3.0 0.00 0.01 0.00 65 1011.8
20260506105010 51 355 0.0 3.0 0.00 0.01 0.00 65 1011.7
20260506104510 51 5 1.0 3.0 0.00 0.01 0.00 65 1011.6
20260506104009 50 221 0.0 2.0 0.00 0.01 0.00 65 1011.6
20260506103509 51 223 0.0 2.0 0.00 0.01 0.00 65 1011.5
20260506103019 51 225 0.0 3.0 0.00 0.01 0.00 64 1011.4
20260506102507 51 225 0.0 3.0 0.00 0.01 0.00 64 1011.4
20260506102005 51 225 1.0 3.0 0.00 0.01 0.00 63 1011.3
20260506101505 52 225 1.0 3.0 0.00 0.01 0.00 63 1011.3
20260506101003 52 234 1.0 2.0 0.00 0.01 0.00 62 1011.3
20260506100503 52 234 0.0 5.0 0.00 0.01 0.00 62 1011.2
20260506100003 52 234 1.0 5.0 0.00 0.01 0.00 62 1011.2
20260506095502 52 211 2.0 3.0 0.00 0.01 0.00 64 1011.1
20260506095002 52 209 0.0 2.0 0.00 0.01 0.00 63 1011.1
20260506094601 52 209 1.0 2.0 0.00 0.01 0.00 63 1011.0
20260506094100 52 209 1.0 3.0 0.00 0.01 0.00 63 1010.9
20260506093604 52 210 1.0 3.0 0.00 0.01 0.00 62 1010.9
20260506093101 52 209 2.0 4.0 0.00 0.01 0.00 62 1010.9
20260506092558 53 209 1.0 3.0 0.00 0.01 0.00 62 1010.8
20260506092102 53 201 1.0 3.0 0.00 0.01 0.00 61 1010.8
20260506091556 53 136 0.0 3.0 0.00 0.01 0.00 60 1010.8
20260506091056 53 138 1.0 3.0 0.00 0.01 0.00 60 1010.7
20260506090557 53 194 1.0 3.0 0.00 0.01 0.00 60 1010.7
20260506090054 53 116 0.0 7.0 0.00 0.01 0.00 59 1010.6
20260506085553 53 131 2.0 7.0 0.00 0.01 0.00 58 1010.6
20260506085052 54 38 1.0 4.0 0.00 0.01 0.00 56 1010.6
20260506084551 56 60 0.0 5.0 0.00 0.01 0.00 53 1010.6
20260506084053 58 44 2.0 7.0 0.00 0.01 0.00 49 1010.5
20260506083549 60 67 0.0 11.0 0.00 0.01 0.00 47 1010.3
20260506083107 61 260 3.0 14.0 0.00 0.01 0.00 47 1010.2
20260506082547 61 265 5.0 12.0 0.00 0.01 0.00 47 1010.1
20260506082050 61 252 5.0 14.0 0.00 0.01 0.00 47 1010.1
20260506081550 61 252 7.0 14.0 0.00 0.01 0.00 46 1010.0
20260506081045 61 261 6.0 14.0 0.00 0.01 0.00 46 1010.1
20260506080545 60 245 8.0 16.0 0.00 0.01 0.00 47 1010.1
20260506073038 56 199 1.0 3.0 0.00 0.01 0.00 56 1009.9
20260506072538 56 199 0.0 3.0 0.00 0.01 0.00 55 1010.0
20260506072037 57 199 0.0 3.0 0.00 0.01 0.00 55 1010.0
20260506071535 57 199 1.0 3.0 0.00 0.01 0.00 55 1009.9
20260506071034 57 199 1.0 3.0 0.00 0.01 0.00 55 1009.8
20260506070536 56 199 1.0 3.0 0.00 0.01 0.00 55 1009.8
20260506062031 58 344 0.0 2.0 0.00 0.04 0.01 53 1009.6
20260506061537 58 344 0.0 2.0 0.00 0.04 0.01 52 1009.5
20260506061032 58 344 0.0 2.0 0.00 0.04 0.01 51 1009.3
20260506060530 59 344 0.0 3.0 0.00 0.04 0.01 50 1009.4
20260506051030 61 139 7.0 14.0 0.00 0.04 0.01 45 1008.8
20260506050528 61 133 8.0 15.0 0.00 0.04 0.01 45 1008.9
20260506045027 62 138 9.0 23.0 0.00 0.04 0.01 44 1008.8
20260506044528 62 144 9.0 19.0 0.00 0.04 0.01 44 1008.8
20260506044029 62 151 12.0 23.0 0.00 0.04 0.01 44 1008.8
20260506043528 62 126 14.0 21.0 0.00 0.04 0.01 43 1008.8
20260506043027 62 130 10.0 20.0 0.00 0.04 0.01 42 1008.7
20260506042527 62 113 4.0 9.0 0.00 0.04 0.01 43 1008.6
20260506042027 63 38 2.0 8.0 0.00 0.04 0.01 42 1008.7
20260506041531 63 80 3.0 7.0 0.00 0.04 0.01 41 1008.4
20260506041027 64 161 1.0 7.0 0.00 0.04 0.01 40 1008.0
20260506040526 64 173 5.0 10.0 0.00 0.04 0.01 40 1007.9
20260506040028 65 168 5.0 11.0 0.00 0.04 0.01 40 1007.8
20260506035527 65 159 4.0 11.0 0.00 0.04 0.01 39 1007.9
20260506035026 65 146 4.0 12.0 0.00 0.04 0.01 39 1007.8
20260506034525 65 146 7.0 12.0 0.00 0.04 0.01 39 1007.9
20260506034026 65 115 4.0 11.0 0.00 0.04 0.01 39 1007.8
20260506033528 65 159 6.0 15.0 0.00 0.04 0.01 39 1007.7
20260506033024 65 138 10.0 15.0 0.00 0.04 0.01 38 1007.7
20260506032524 65 137 7.0 14.0 0.00 0.04 0.01 38 1007.6
20260506032024 65 104 8.0 14.0 0.00 0.04 0.01 38 1007.5
20260506031529 65 134 8.0 15.0 0.00 0.04 0.01 38 1007.4
20260506031028 65 103 8.0 18.0 0.00 0.04 0.01 38 1007.3
20260506030525 65 111 9.0 18.0 0.00 0.04 0.01 37 1007.3
20260506030024 66 111 10.0 16.0 0.00 0.04 0.01 37 1007.3
20260506025527 66 119 9.0 16.0 0.00 0.05 0.01 37 1007.2
20260506025023 66 146 8.0 16.0 0.00 0.05 0.01 37 1007.2
20260506024535 66 124 10.0 16.0 0.00 0.05 0.01 36 1007.1
20260506024022 66 134 10.0 18.0 0.00 0.05 0.01 36 1007.0
20260506023524 67 148 10.0 18.0 0.00 0.05 0.01 35 1007.0
20260506023022 67 139 10.0 19.0 0.00 0.05 0.01 34 1007.0
20260506022525 67 130 11.0 19.0 0.00 0.05 0.01 34 1006.9
20260506022021 68 127 8.0 16.0 0.00 0.05 0.01 34 1007.1